[[{"header":{"parameterUnit":"m.s-1","parameterCategory":1,"la1":30.2991,"la2":30.254,"lo1":-89.0895,"lo2":-89.0444,"dy":0.0017,"dx":0.0017,"nx":28,"ny":28,"refTime":"2024-04-21T03:00:00:Z","depth":0,"parameterNumber":2,"parameterNumberName":"U-component_of_WINDS"},"data":[0,0,0,0,0,0,0,0,0,0,0,0,0,0,0,0,0,0,0,0,0,0,0,0,0,0,0,0,0,0,0,0,0,0,0,0,0,0,0,0,0,0,0,0,0,0,0,0,0,0,0,0,0,0,0,0,0,0,-2.1986,-2.1986,0,-2.1972,-2.1972,-2.1972,-2.1913,-2.1911,-2.191,-2.1908,-2.1896,-2.1897,-2.1898,0,0,0,0,0,0,0,0,0,0,0,0,0,-2.1962,-2.1963,-2.1986,-2.1986,-2.1985,-2.1972,-2.1972,-2.1972,-2.1913,-2.1911,-2.1909,-2.1908,-2.1896,-2.1897,-2.1898,0,0,0,0,0,0,0,0,0,0,0,0,0,-2.1963,-2.1963,-2.1986,-2.1954,-2.1951,-2.1972,-2.1972,-2.1972,-2.1913,-2.1911,-2.1909,-2.1907,-2.1896,-2.1897,-2.1899,-2.1949,0,0,-2.1903,-2.1904,0,0,0,0,0,0,0,0,-2.1963,-2.1964,-2.1959,-2.1957,-2.1953,-2.1942,-2.1959,-2.1964,-2.1914,-2.1928,-2.1908,-2.1906,-2.1913,-2.1913,-2.1915,-2.1949,-2.1948,-2.1903,-2.1904,-2.1905,-2.1905,0,0,0,0,0,0,0,-2.1963,-2.1964,-2.198,-2.1959,-2.1956,-2.1941,-2.1939,-2.196,-2.1932,-2.1926,-2.1922,-2.1921,-2.1911,-2.1914,-2.1915,-2.1948,-2.1903,-2.1904,-2.1905,-2.1906,-2.2023,-2.2025,0,0,0,0,0,0,-2.1967,-2.1964,-2.1981,-2.198,-2.1953,-2.1943,-2.1941,-2.1948,-2.1932,-2.1928,-2.1923,-2.1918,-2.1913,-2.1913,-2.1914,-2.1973,-2.1905,-2.1906,-2.1907,-2.2021,-2.2023,-2.2026,0,0,0,0,0,0,-2.1967,-2.1969,-2.1981,-2.1971,-2.1971,-2.1946,-2.1954,-2.1949,-2.1951,-2.1929,-2.1924,-2.1931,-2.1911,-2.1912,-2.1941,-2.1972,-2.1907,-2.1908,-2.2018,-2.2021,-2.2024,-2.2091,0,0,0,0,0,0,-2.1966,-2.1969,-2.1988,-2.1972,-2.1972,-2.2009,-2.1956,-2.195,-2.1954,-2.1948,-2.1935,-2.1931,-2.1909,-2.1939,-2.1942,-2.1972,-2.1909,-2.2015,-2.2019,-2.2023,-2.2086,-2.2096,-2.2105,0,0,0,0,0,-2.1966,-2.2008,-2.1989,-2.1992,-2.1995,-2.201,-2.2011,-2.1984,-2.1956,-2.1975,-2.1961,-2.1932,-2.1967,-2.1943,-2.1946,-2.1977,-2.2013,-2.2018,-2.2023,-2.2082,-2.2094,-2.2105,0,0,0,0,0,0,-2.2029,-2.2005,-2.1985,-2.2022,-2.2019,-2.2,-2.2023,-2.1998,-2.2003,-2.1997,-2.1964,-2.1962,-2.1996,-2.1989,-2.1962,-2.2025,-2.1985,-2.1991,-2.2029,-2.204,-2.205,-2.2051,-2.191,0,0,0,0,0,-2.2047,-2.2061,-2.204,-2.2075,-2.2074,-2.2049,-2.2055,-2.2035,-2.203,-2.2028,-2.2016,-2.2013,-2.2024,-2.2031,-2.204,-2.2084,-2.2081,-2.2107,-2.2116,-2.2124,-2.213,-2.2154,-2.2165,-2.2042,-2.2042,-2.2042,0,0,-2.2086,-2.2074,-2.2085,-2.2088,-2.2082,-2.2098,-2.2049,-2.2067,-2.2079,-2.2031,-2.2058,-2.2049,-2.2043,-2.2081,-2.2096,-2.2076,-2.2163,-2.2131,-2.2137,-2.2139,-2.216,-2.2172,-2.2182,-2.2046,-2.2045,-2.2044,0,0,-2.2163,-2.2156,-2.2185,-2.218,-2.2173,-2.2156,-2.2163,-2.2148,-2.214,-2.2166,-2.2131,-2.2144,-2.2163,-2.216,-2.2162,-2.2238,-2.2211,-2.2241,-2.2292,-2.2315,-2.2325,-2.2333,-2.2361,-2.2372,-2.2247,-2.2247,-2.2247,0,-2.2212,-2.2234,-2.2203,-2.2224,-2.2226,-2.2183,-2.2213,-2.221,-2.2206,-2.2209,-2.2186,-2.2208,-2.2201,-2.2237,-2.2256,-2.2258,-2.2266,-2.2243,-2.2325,-2.2334,-2.2341,-2.2368,-2.2378,-2.2251,-2.2251,-2.225,-2.225,0,-2.2295,-2.231,-2.2334,-2.2331,-2.2336,-2.2361,-2.2335,-2.2343,-2.2322,-2.2308,-2.2335,-2.2325,-2.2331,-2.2338,-2.2318,-2.2371,-2.2359,-2.2331,-2.2291,-2.2357,-2.2382,-2.2391,-2.2257,-2.2255,-2.2254,-2.2253,0,0,-2.2413,-2.2392,-2.2401,-2.2399,-2.2387,-2.2399,-2.2422,-2.2427,-2.2436,-2.2434,-2.2453,-2.247,-2.2444,-2.2445,-2.2424,-2.2445,-2.2507,-2.2414,-2.2414,-2.2433,-2.2566,-2.2588,-2.26,-2.2488,-2.249,-2.2492,-2.2567,0,-2.2488,-2.2526,-2.2499,-2.2542,-2.2556,-2.2515,-2.2535,-2.2531,-2.2518,-2.2528,-2.2514,-2.2526,-2.249,-2.2491,-2.2509,-2.2495,-2.2533,-2.2489,-2.2507,-2.2508,-2.2511,-2.2613,-2.2636,-2.2708,-2.2576,-2.2578,-2.2579,0,-2.2581,-2.2583,-2.2628,-2.2613,-2.2618,-2.2636,-2.2639,-2.2649,-2.2643,-2.2632,-2.2633,-2.2607,-2.2629,-2.2588,-2.2619,-2.259,-2.2595,-2.2589,-2.2591,-2.2593,-2.2549,-2.2619,-2.273,-2.2741,-2.2593,-2.2592,-2.2591,0,-2.2665,-2.2678,-2.2707,-2.2706,-2.2689,-2.2703,-2.2697,-2.2688,-2.2693,-2.2695,-2.2698,-2.2703,-2.2706,-2.2711,-2.2687,-2.2659,-2.2721,-2.2678,-2.2714,-2.2714,-2.273,-2.2729,-2.2845,-2.2731,-2.2731,-2.2731,-2.2731,0,-2.2752,-2.2782,-2.2744,-2.2762,-2.2793,-2.2761,-2.2793,-2.2783,-2.2775,-2.2791,-2.2755,-2.277,-2.2737,-2.2749,-2.273,-2.2759,-2.276,-2.2753,-2.2748,-2.2757,-2.2758,-2.2761,-2.2756,-2.2734,-2.2733,-2.2732,-2.2732,0,-2.2852,-2.2828,-2.2856,-2.2837,-2.2833,-2.2857,-2.2841,-2.2857,-2.2841,-2.2861,-2.2864,-2.2839,-2.2851,-2.2827,-2.2836,-2.2824,-2.2864,-2.2851,-2.2867,-2.2863,-2.29,-2.2898,-2.3023,-2.3038,-2.2914,-2.2915,-2.2916,0,-2.291,-2.2931,-2.2914,-2.2922,-2.2917,-2.2929,-2.2934,-2.2903,-2.2909,-2.2903,-2.292,-2.2929,-2.2935,-2.2956,-2.294,-2.2946,-2.2934,-2.2977,-2.2934,-2.2943,-2.2936,-2.2935,-2.2937,-2.2986,-2.2988,-2.2989,-2.299,0,-2.3016,-2.3003,-2.301,-2.3013,-2.3019,-2.3021,-2.3019,-2.3028,-2.2995,-2.3004,-2.3015,-2.302,-2.3028,-2.3038,-2.3041,-2.3035,-2.3008,-2.3003,-2.3012,-2.3022,-2.3031,-2.3028,-2.2892,-2.3001,-2.3,-2.2999,-2.2998,-2.2998,-2.3097,-2.3114,-2.3105,-2.3114,-2.311,-2.3109,-2.3123,-2.3109,-2.3118,-2.3122,-2.3103,-2.3119,-2.3112,-2.3113,-2.311,-2.3123,-2.3103,-2.3116,-2.3119,-2.3123,-2.313,-2.3028,-2.3123,-2.3122,-2.3122,-2.3122,-2.3122,0,-2.3202,-2.3194,-2.3203,-2.3202,-2.3209,-2.3181,-2.3178,-2.3187,-2.3201,-2.3196,-2.3202,-2.3216,-2.3225,-2.3209,-2.3215,-2.3229,-2.3216,-2.3232,-2.3231,-2.323,-2.3146,-2.3138,-2.3241,-2.3241,-2.3241,-2.3241,-2.3241,-2.3241,-2.3258,-2.3286,-2.3271,-2.3296,-2.3288,-2.3303,-2.3303,-2.3303,-2.3299,-2.3316,-2.3323,-2.3311,-2.3302,-2.3308,-2.3315,-2.331,-2.3315,-2.3335,-2.3326,-2.3248,-2.3236,-2.3225,-2.3218,-2.3336,-2.3336,-2.3409,-2.341,-2.341]},{"header":{"parameterUnit":"m.s-1","parameterCategory":1,"la1":30.2991,"la2":30.254,"lo1":-89.0895,"lo2":-89.0444,"dy":0.0017,"dx":0.0017,"nx":28,"ny":28,"refTime":"2024-04-21T03:00:00:Z","depth":0,"parameterNumber":3,"parameterNumberName":"V-component_of_WINDS"},"data":[0,0,0,0,0,0,0,0,0,0,0,0,0,0,0,0,0,0,0,0,0,0,0,0,0,0,0,0,0,0,0,0,0,0,0,0,0,0,0,0,0,0,0,0,0,0,0,0,0,0,0,0,0,0,0,0,0,0,-5.9034,-5.9035,0,-5.9074,-5.9074,-5.9075,-5.9019,-5.9017,-5.9015,-5.9013,-5.905,-5.9053,-5.9055,0,0,0,0,0,0,0,0,0,0,0,0,0,-5.8906,-5.8909,-5.9034,-5.9035,-5.9035,-5.9074,-5.9074,-5.9075,-5.9019,-5.9017,-5.9015,-5.9012,-5.9049,-5.9052,-5.9056,0,0,0,0,0,0,0,0,0,0,0,0,0,-5.8955,-5.891,-5.9034,-5.9012,-5.9011,-5.9074,-5.9074,-5.9075,-5.902,-5.9017,-5.9014,-5.9011,-5.9048,-5.9052,-5.9056,-5.9141,0,0,-5.9069,-5.9071,0,0,0,0,0,0,0,0,-5.8952,-5.896,-5.9015,-5.9014,-5.9012,-5.9039,-5.9042,-5.9097,-5.9021,-5.9016,-5.9013,-5.901,-5.9048,-5.9052,-5.9066,-5.9143,-5.9144,-5.9069,-5.9072,-5.9074,-5.9075,0,0,0,0,0,0,0,-5.8949,-5.8958,-5.905,-5.9016,-5.9014,-5.8999,-5.9003,-5.9052,-5.9048,-5.9016,-5.9013,-5.9018,-5.9047,-5.9062,-5.9066,-5.9145,-5.9069,-5.9073,-5.9075,-5.9077,-5.9293,-5.9296,0,0,0,0,0,0,-5.8949,-5.8955,-5.9048,-5.9051,-5.8975,-5.9004,-5.9008,-5.9033,-5.9047,-5.9047,-5.9021,-5.9016,-5.9056,-5.9062,-5.9067,-5.9168,-5.9074,-5.9078,-5.908,-5.929,-5.9294,-5.9297,0,0,0,0,0,0,-5.8946,-5.8958,-5.9047,-5.9002,-5.9012,-5.9009,-5.9038,-5.9035,-5.9051,-5.9051,-5.9049,-5.9037,-5.9054,-5.9062,-5.9123,-5.9169,-5.9079,-5.9083,-5.9286,-5.9291,-5.9295,-5.937,0,0,0,0,0,0,-5.8943,-5.8957,-5.899,-5.9003,-5.9015,-5.9104,-5.904,-5.9038,-5.9058,-5.9052,-5.9066,-5.9065,-5.9052,-5.9117,-5.9128,-5.9173,-5.9087,-5.9282,-5.9288,-5.9294,-5.9364,-5.9377,-5.9388,0,0,0,0,0,-5.8939,-5.9009,-5.8992,-5.9004,-5.9057,-5.9106,-5.9113,-5.9098,-5.9062,-5.9095,-5.9095,-5.9065,-5.9162,-5.9124,-5.9135,-5.9182,-5.9279,-5.9286,-5.9293,-5.9358,-5.9374,-5.9388,0,0,0,0,0,0,-5.8999,-5.901,-5.8992,-5.9069,-5.9087,-5.9097,-5.9138,-5.9115,-5.9143,-5.9136,-5.9114,-5.9118,-5.9184,-5.9189,-5.9147,-5.9265,-5.9214,-5.9224,-5.926,-5.9275,-5.9287,-5.9285,-5.909,0,0,0,0,0,-5.9022,-5.9063,-5.9069,-5.9136,-5.9147,-5.9141,-5.9162,-5.9149,-5.9166,-5.9173,-5.9178,-5.9195,-5.9229,-5.9252,-5.9284,-5.9364,-5.9366,-5.9402,-5.9414,-5.9424,-5.9433,-5.9476,-5.9492,-5.9321,-5.9321,-5.9321,0,0,-5.9069,-5.908,-5.9106,-5.9149,-5.9162,-5.9203,-5.9148,-5.9194,-5.9224,-5.918,-5.9239,-5.9243,-5.9261,-5.9332,-5.9364,-5.9338,-5.948,-5.9433,-5.9441,-5.9445,-5.9485,-5.9501,-5.9515,-5.9326,-5.9325,-5.9324,0,0,-5.9175,-5.9188,-5.9245,-5.926,-5.928,-5.9276,-5.929,-5.9303,-5.9305,-5.9364,-5.9332,-5.9367,-5.9426,-5.9441,-5.9455,-5.9568,-5.9541,-5.9579,-5.9643,-5.9685,-5.9699,-5.971,-5.9751,-5.9766,-5.9587,-5.9587,-5.9588,0,-5.923,-5.9294,-5.9277,-5.9327,-5.9346,-5.9309,-5.9367,-5.9381,-5.941,-5.9424,-5.9395,-5.947,-5.9479,-5.9553,-5.9581,-5.9594,-5.9609,-5.9577,-5.9698,-5.971,-5.9721,-5.9759,-5.9774,-5.9592,-5.9591,-5.9591,-5.9591,0,-5.936,-5.9404,-5.9448,-5.948,-5.9504,-5.9557,-5.9548,-5.9574,-5.9559,-5.9557,-5.9618,-5.9628,-5.9661,-5.9677,-5.9662,-5.975,-5.9733,-5.9702,-5.965,-5.9742,-5.9777,-5.9792,-5.9598,-5.9597,-5.9595,-5.9594,0,0,-5.9506,-5.9529,-5.9545,-5.9559,-5.958,-5.9613,-5.9664,-5.9698,-5.9721,-5.9742,-5.9784,-5.9835,-5.9807,-5.9824,-5.9809,-5.9846,-5.9935,-5.981,-5.981,-5.9834,-6.0033,-6.0057,-6.0074,-5.9918,-5.992,-5.9922,-6.0031,0,-5.9613,-5.9704,-5.9691,-5.9777,-5.9818,-5.9783,-5.9828,-5.9844,-5.9844,-5.9877,-5.9876,-5.9913,-5.9872,-5.9882,-5.9917,-5.9917,-5.9975,-5.9909,-5.9956,-5.9958,-5.9953,-6.0093,-6.0118,-6.0221,-6.0045,-6.0047,-6.0049,0,-5.975,-5.9779,-5.987,-5.9885,-5.9901,-5.9941,-5.9972,-6.0004,-6.0022,-6.0019,-6.0039,-6.0018,-6.0068,-6.0015,-6.0083,-6.0039,-6.0057,-6.006,-6.0063,-6.0067,-6.0009,-6.0101,-6.0253,-6.0268,-6.0071,-6.0069,-6.0068,0,-5.9849,-5.9909,-5.9972,-5.9985,-6.0003,-6.0032,-6.0041,-6.0056,-6.0078,-6.0103,-6.0117,-6.0148,-6.0164,-6.0188,-6.0176,-6.0139,-6.0246,-6.0193,-6.0245,-6.0245,-6.0269,-6.0268,-6.0427,-6.028,-6.028,-6.028,-6.028,0,-5.997,-6.0027,-6.0017,-6.0055,-6.0118,-6.0102,-6.0164,-6.0168,-6.0182,-6.0219,-6.0191,-6.0226,-6.0208,-6.0242,-6.0233,-6.0291,-6.0298,-6.0297,-6.0294,-6.03,-6.03,-6.0312,-6.0304,-6.0284,-6.0283,-6.0282,-6.0282,0,-6.009,-6.0086,-6.0152,-6.0164,-6.0169,-6.0215,-6.0225,-6.026,-6.0258,-6.0306,-6.0316,-6.0312,-6.0351,-6.0341,-6.0383,-6.0376,-6.045,-6.0437,-6.0444,-6.0442,-6.0494,-6.049,-6.0666,-6.0689,-6.0528,-6.0529,-6.053,0,-6.0169,-6.0212,-6.023,-6.0254,-6.0266,-6.0305,-6.0327,-6.0312,-6.0336,-6.036,-6.0393,-6.0429,-6.0458,-6.0521,-6.0521,-6.0552,-6.0541,-6.06,-6.0545,-6.055,-6.0542,-6.054,-6.0544,-6.0611,-6.0613,-6.0615,-6.0616,0,-6.0308,-6.0304,-6.0338,-6.0371,-6.0399,-6.0424,-6.0447,-6.0468,-6.0455,-6.0483,-6.0523,-6.0545,-6.0589,-6.0625,-6.0654,-6.0661,-6.0637,-6.0633,-6.0647,-6.0654,-6.0657,-6.0657,-6.0475,-6.063,-6.0628,-6.0627,-6.0626,-6.0626,-6.041,-6.0447,-6.0466,-6.0505,-6.0521,-6.0542,-6.0577,-6.0579,-6.0613,-6.0648,-6.0637,-6.0683,-6.0699,-6.0736,-6.0747,-6.0782,-6.0759,-6.0779,-6.0784,-6.0789,-6.0796,-6.0651,-6.0787,-6.0786,-6.0786,-6.0786,-6.0785,0,-6.0548,-6.0559,-6.0595,-6.0628,-6.0659,-6.0634,-6.0657,-6.0684,-6.0726,-6.0743,-6.0773,-6.0819,-6.0854,-6.0857,-6.089,-6.0917,-6.0907,-6.0926,-6.0924,-6.0926,-6.0814,-6.08,-6.0934,-6.0934,-6.0934,-6.0934,-6.0934,-6.0934,-6.0624,-6.0686,-6.0684,-6.0753,-6.0763,-6.0809,-6.0825,-6.0844,-6.0858,-6.0912,-6.0942,-6.0944,-6.0956,-6.0989,-6.102,-6.102,-6.1034,-6.1058,-6.1054,-6.0949,-6.0934,-6.092,-6.0906,-6.1061,-6.1061,-6.1163,-6.1164,-6.1164]}]]